Regional Weather Roundup
Issued by NWS Northern Indiana

Home | Current Version | Previous Version | Text Only | Print | Product List | Glossary Off
Versions: 1 2 3 4 5 6 7 8 9 10 11 12 13 14 15 16 17 18 19 20 21 22 23 24 25 26 27 28 29 30 31 32 33 34 35 36 37 38 39 40 41 42 43 44 45 46 47 48 49 50

000
ASUS43 KIWX 242010
RWRIWX

KIWX WEATHER ROUNDUP
NATIONAL WEATHER SERVICE NORTHERN INDIANA
400 PM EDT TUE APR 24 2018

NOTE: "FAIR" INDICATES FEW OR NO CLOUDS BELOW 12,000 FEET WITH NO
SIGNIFICANT WEATHER AND/OR OBSTRUCTIONS TO VISIBILITY.

* THESE STATIONS ARE NOT UNDER NWS QUALITY CONTROL. THEY ALSO MAY NOT
  REPORT WEATHER SUCH AS PRECIPITATION OR FOG.

INZ001>027-242100-
NORTHERN INDIANA

CITY           SKY/WX    TMP DP  RH WIND       PRES   REMARKS
GARY*          PTSUNNY   57  46  67 N12       30.02F
VALPARAISO     CLOUDY    60  50  69 N10       29.99F
MICHIGAN CITY* CLOUDY    52  46  82 N7        30.01
LAPORTE*       CLOUDY    57  50  76 N10       29.99F
KNOX*          CLOUDY    59  50  72 NE10      29.97F
SOUTH BEND     CLOUDY    61  49  64 NE6       29.99F
ELKHART*       CLOUDY    59  48  67 NE9       29.98F
GOSHEN         CLOUDY    58  50  75 E9        29.98F
MONTICELLO*    CLOUDY    57  50  76 NE7       29.96F
LOGANSPORT*    CLOUDY    55  50  82 NE7       29.97F
ROCHESTER*     CLOUDY    59  52  77 N6        29.98S
WARSAW*        CLOUDY    55  50  82 E7        29.97F
AUBURN*        CLOUDY    54  52  94 N5        29.98F
FORT WAYNE     DRIZZLE   55  52  89 E12       29.97F
HUNTINGTON*    CLOUDY    55  51  88 NE6       29.96F
PERU/GRISSOM   DRIZZLE   55  55 100 N6        29.95F FOG
MARION*        CLOUDY    55  51  85 CALM      29.96S

$$
INZ028>050-242100-
CENTRAL INDIANA

CITY           SKY/WX    TMP DP  RH WIND       PRES   REMARKS
LAFAYETTE      CLOUDY    58  52  80 NE9       29.95F
KOKOMO*        CLOUDY    55  53  93 NE8       29.96F
MUNCIE*        CLOUDY    58  53  84 E9        29.94F
INDIANAPOLIS   CLOUDY    57  52  83 N7        29.93F

$$
MIZ043>046-050>051-056>058-064>065-071>073-077>080-242100-
SOUTHWEST LOWER MICHIGAN

CITY           SKY/WX    TMP DP  RH WIND       PRES   REMARKS
BATTLE CREEK   CLOUDY    58  50  75 E7        30.00F
BENTON HARBOR  CLOUDY    57  47  69 N7        29.99F
COLDWATER*     CLOUDY    55  51  86 NE8       29.99F
HILLSDALE*     LGT RAIN  52  50  93 E8        29.99F
HOLLAND        CLOUDY    63  48  58 E5        30.01F
GRAND RAPIDS   CLOUDY    61  49  64 N6        30.01F
KALAMAZOO      CLOUDY    61  48  62 E8        30.00F
STURGIS*       CLOUDY    56  50  80 E7        29.99F
THREE RIVERS*  CLOUDY    59  49  71 E8        30.00S

$$
OHZ001>008-015>018-024>025-242100-
NORTHWEST OHIO

CITY           SKY/WX    TMP DP  RH WIND       PRES   REMARKS
WAUSEON*       CLOUDY    52  52 100 E13       29.99F FOG
DEFIANCE       LGT RAIN  54  52  93 NE9       29.98F FOG
FINDLAY        LGT RAIN  56  50  80 E8        29.95F
TOLEDO EXPRESS LGT RAIN  53  53 100 E13       29.99F FOG
TOLEDO METCALF LGT RAIN  52  50  93 E12G18    30.00F FOG
LIMA           CLOUDY    55  51  86 SE16      29.94F

$$
AND FOR LAKE MICHIGAN COASTAL AND OPEN LAKE BUOY OBSERVATIONS

STATION/POSITION TEMP    WIND        PRES    VSBY  WAVE
                 AIR SEA DIR/SP/G                  HT/PER
                 (F)     (DEG/KT/KT) (MB)    (MI)  (FT/S)
CALUMET HARBOR    48     340/ 12/ 13 1015.8F
MICHIGAN CITY     43      30/  6/  6   N/A
BURNS HARBOR      46      60/  5/  6 1016.9F
SAINT JOSEPH      49     360/  5/  7 1016.3
4 MI NW BRIDGMAN  44 42  330/  6/ 10 1016.8          1/ 3

$$
&&




USA.gov is the U.S. government's official web portal to all federal, state and local government web resources and services.